Regional Weather Roundup
Issued by NWS Green Bay, WI

Home | Current Version | Previous Version | Text Only | Print | Product List | Glossary On
Versions: 1 2 3 4 5 6 7 8 9 10 11 12 13 14 15 16 17 18 19 20 21 22 23 24 25 26 27 28 29 30 31 32 33 34 35 36 37 38 39 40 41 42 43 44 45 46 47 48 49 50
000
ASUS43 KGRB 232010
RWRGRB

NORTH-CENTRAL AND NORTHEAST WISCONSIN REGIONAL WEATHER ROUNDUP
NATIONAL WEATHER SERVICE GREEN BAY WI
200 PM CST SUN NOV 23 2014

WIZ005-009-010>012-018-019-232100-
NORTH CENTRAL WISCONSIN

CITY           SKY/WX    TMP DP  RH WIND       PRES   REMARKS
IRONWOOD       CLOUDY    46  46 100 S7        29.37F
MANITOWISH WTR FOG       42  42 100 S7        29.41F VSB<1/4
ARBOR VITAE    FOG       44  43  96 S6        29.42F VSB<1/4
EAGLE RIVER    FOG       44  44 100 S3        29.43F VSB 1/4
LAND O LAKES   FOG       44  44 100 S7        29.44S VSB 1/4
RHINELANDER    FOG       44  44 100 S7        29.44F VSB 1/2
PHILLIPS       FOG       42  42 100 S6        29.41F VSB<1/4
ANTIGO         FOG       41  41 100 CALM      29.45F VSB<1/4
TOMAHAWK       FOG       43  42  97 CALM      29.44F VSB<1/4
MERRILL        FOG       45  45 100 CALM      29.44F VSB<1/4
$$

WIZ013-073-232100-
NORTHEAST WISCONSIN

CITY           SKY/WX    TMP DP  RH WIND       PRES   REMARKS
IRON MOUNTAIN  FOG       43  42  97 SE7       29.46F VSB<1/4
MARINETTE      CLOUDY    46  45  93 SW7       29.48F
OCONTO         CLOUDY    46  46 100 S5        29.48F
$$

WIZ017-030-035>037-045-232100-
CENTRAL WISCONSIN

CITY           SKY/WX    TMP DP  RH WIND       PRES   REMARKS
MEDFORD        FOG       43  43 100 SE6       29.42F VSB<1/4
WAUSAU         FOG       46  46 100 S7        29.43F VSB 1/4
MOSINEE        FOG       46  46 100 S8        29.45F VSB 1/8
MARSHFIELD     FOG       48  47  96 S5        29.43F VSB 1/4
WISC RAPIDS    LGT RAIN  49  47  93 S3        29.45F FOG
STEVENS POINT  RAIN      46  46 100 S3        29.44F
WAUPACA        LGT RAIN  50  49  95 SE8       29.47F
SHAWANO        CLOUDY    50  48  95 CALM      29.47F FOG
CLINTONVILLE   CLOUDY    46  46 100 S5        29.46F FOG
$$

WIZ038-039-048-051-232100-
FOX VALLEY

CITY           SKY/WX    TMP DP  RH WIND       PRES   REMARKS
NWS GREEN BAY  CLOUDY    48  46  93 S5        29.50F FOG
APPLETON       LGT RAIN  46  46 100 S8        29.50F FOG
OSHKOSH        LGT RAIN  48  46  93 VRB6      29.50F FOG
FOND DU LAC    LGT RAIN  49  46  90 S13       29.48F
$$

WIZ022-050-052-232100-
EAST CENTRAL WISCONSIN

CITY           SKY/WX    TMP DP  RH WIND       PRES   REMARKS
STURGEON BAY   CLOUDY    45  43  93 S9        29.51F
MANITOWOC      LGT RAIN  45  44  97 S13       29.52F FOG
SHEBOYGAN      LGT RAIN  47  45  93 S12       29.50F FOG
$$

LMZ563-521-522-541>543-232100-
LAKESHORE

STATION/POSITION TIME  TEMP    WIND        PRES    VSBY  WAVE
                       AIR SEA DIR/SP/G                  HT/PER
                 (UTC) (F)     (DEG/KT/KT) (MB)    (MI)  (FT/S)
SHEBOYGAN LKSHOR 2000   43 40  180/ 14/ 15  999.9F
KEWAUNEE LKSHORE 2000   39     180/ 11/ 12  999.4R
ALGOMA MARINA    1900          210/  8/  9   N/A
NORTHPORT PIER   2000   44     160/  7/ 13 1000.3F
N MID LAKE BUOY  2000   45 42  200/ 19/ 23 1000.6F         6/ 6
SISTER BAY LKSHO 2000          150/ 14/ 17   N/A
STURGEON BAY CG  1900   42     190/ 17     1002.3   1 1/4  3
CHAMBERS ISLAND  2000   45     140/  5/ 11 1000.0F
MENOMINEE LKSHOR 2000   43     180/  6/  7  999.6F
$$


USA.gov is the U.S. government's official web portal to all federal, state and local government web resources and services.